Location: *
(42.3442°N, 9.2072°E)
Time: 15:41:30
(UTC+00:00)

GEOS 3 Rocket - Pass Details

Date: 09 April 2020
Orbit: 774 x 845 km, 115.0° (Epoch: 05 June)

Event Time Altitude Azimuth Distance (km) Brightness Sun altitude
Exits shadow 19:27:22 12° 167° (SSE) 2,223 5.5 -16.3°
Maximum altitude 19:31:55 46° 239° (WSW) 1,068 4.4 -17.0°
Drops below altitude 10° 19:36:54 10° 312° (NW) 2,399 7.3 -17.8°
Sets 19:39:20 0° 319° (NW) 3,346 8.2 -18.2°
